Temperature
19 19 19 19 16 14 17 17 17 18 19 21 20 20 18 18 19 19 20 21 21 21 21 20 20 19 19 19 18 18 17 17 17 17 17 17 16 16 16 16 16 16 16 16 16 16 16 16 16
19 19 19 19 14 15 17 16 17 19 19 21 21 20 19 19 19 19 20 20 20 20 20 19 19 19 19 19 18 18 17 17 17 17 17 16 16 16 16 16 16 16 16 16 16 16 16 16 16
19 19 19 14 14 15 17 16 16 18 20 20 20 19 18 16 17 18 19 19 19 19 18 18 18 18 18 18 18 18 17 17 16 16 16 16 16 16 16 16 16 16 16 16 16 16 16 16 16
19 19 19 15 15 16 17 16 16 17 20 19 20 18 17 14 15 16 18 19 18 18 17 17 17 17 17 17 17 17 17 16 16 15 15 15 15 15 15 15 15 15 15 15 15 15 16 16 16
20 20 14 14 16 16 15 16 17 16 16 16 18 17 15 14 15 17 18 18 17 17 16 16 16 16 16 16 16 16 16 16 15 15 15 15 15 14 14 15 15 15 15 15 15 15 15 15 15
20 16 13 15 16 16 16 17 17 14 14 13 14 16 13 12 15 16 16 17 16 16 15 15 15 15 15 15 15 15 15 15 15 15 15 15 14 14 14 14 14 14 15 15 15 15 15 15 15
18 13 14 16 16 16 16 17 14 13 11 10 12 13 12 12 12 13 15 16 15 15 15 15 15 15 15 15 15 15 15 14 14 14 14 14 14 14 14 14 14 14 14 14 14 15 15 15 15
19 13 15 15 16 17 17 16 13 11 9 8 9 7 7 8 11 13 14 14 14 14 14 14 14 14 14 14 14 14 14 14 14 14 14 14 14 14 14 14 14 14 14 14 14 14 14 14 14
19 13 15 17 17 16 14 14 12 9 8 7 7 6 7 8 11 14 14 14 13 13 13 13 13 13 13 13 13 13 14 13 13 13 14 14 14 14 14 14 14 14 14 14 14 14 14 14 14
18 14 17 18 17 14 10 10 10 8 7 7 7 7 8 10 11 12 11 11 11 11 12 12 12 12 13 13 13 13 13 13 13 13 13 13 13 13 13 13 14 14 14 13 13 14 14 14 14
17 16 17 17 17 14 11 8 8 8 6 6 6 6 7 9 9 9 8 8 8 9 10 10 11 11 12 12 12 12 12 12 12 12 13 13 13 13 13 13 13 13 13 13 13 13 13 13 13
17 16 16 15 16 12 11 9 7 7 6 6 6 7 7 7 7 7 7 7 8 9 9 9 10 10 10 11 11 12 12 12 12 12 12 12 12 13 13 13 13 13 13 13 13 13 13 13 13
16 15 12 11 11 9 9 8 7 7 7 6 7 7 6 6 6 6 6 7 7 7 8 8 9 9 10 10 10 10 11 11 11 12 12 12 12 12 12 13 12 12 12 12 13 13 13 13 12
16 14 13 12 12 10 9 8 7 7 6 6 6 6 6 6 6 6 6 6 6 6 7 7 8 8 9 9 9 10 10 10 11 11 11 11 12 12 12 12 13 12 12 12 12 12 12 12 12
16 13 13 13 12 10 9 7 6 6 6 6 5 5 5 5 5 5 5 5 5 6 6 7 7 7 8 8 8 8 9 9 10 10 11 11 11 11 11 12 12 12 13 12 12 12 12 12 12
14 13 13 13 12 11 9 5 6 6 5 5 5 5 5 5 5 4 4 5 5 5 6 6 6 7 7 7 7 7 7 7 8 9 9 10 10 10 10 11 11 11 12 12 12 12 11 11 11
12 13 14 13 10 9 7 5 5 5 4 4 4 4 4 4 4 4 4 4 4 4 5 5 5 5 6 6 6 6 6 6 6 6 7 7 8 8 8 9 9 10 11 11 11 11 11 11 11
14 14 13 12 9 7 6 4 4 4 4 3 3 3 4 4 3 3 4 4 4 4 4 4 4 4 4 4 5 5 5 4 4 4 4 5 5 6 6 7 7 8 9 10 10 11 11 11 11
14 13 12 10 8 6 5 4 3 3 3 3 3 3 3 3 3 3 3 3 3 3 3 2 2 2 2 2 2 2 2 2 2 2 2 3 3 4 4 5 6 6 7 8 9 9 10 10 10
13 12 11 9 8 6 4 3 3 3 3 2 2 2 2 2 2 2 2 2 1 1 1 1 0 -1 -1 -1 -1 -1 -0 0 1 1 2 2 2 3 3 3 4 5 5 6 7 8 9 9 9
12 12 12 10 6 5 4 3 3 3 3 2 2 2 2 1 1 1 1 0 0 0 -0 -1 -1 -2 -2 -2 -2 -2 -1 -1 0 1 1 1 1 2 2 3 3 3 4 5 6 7 8 8 9
11 12 11 10 7 5 5 3 2 3 2 2 2 2 2 1 0 -0 -1 -1 -2 -2 -2 -2 -2 -3 -3 -3 -3 -3 -3 -4 -3 -3 -1 -0 0 0 1 2 2 3 3 4 5 6 6 7 8
10 9 9 9 7 6 6 4 2 2 2 1 2 2 1 0 -0 -1 -2 -3 -3 -3 -4 -4 -4 -3 -4 -3 -4 -4 -4 -5 -5 -5 -4 -4 -3 -2 -2 -1 0 1 2 3 4 4 5 6 7
9 9 9 7 7 8 6 5 2 1 2 1 1 2 1 -0 -1 -2 -3 -4 -4 -5 -5 -5 -5 -5 -5 -5 -5 -5 -6 -6 -6 -6 -6 -5 -5 -4 -4 -3 -2 -1 0 1 2 3 4 5 6
7 8 9 9 9 8 4 2 1 2 2 2 1 1 0 -1 -2 -3 -4 -5 -5 -6 -6 -6 -6 -6 -6 -6 -6 -7 -7 -7 -7 -7 -6 -6 -6 -5 -5 -4 -3 -2 -1 -0 1 2 3 4 5
8 8 8 9 8 6 4 2 1 2 2 2 2 1 -0 -2 -3 -4 -4 -5 -6 -6 -6 -6 -7 -7 -7 -7 -7 -8 -8 -8 -8 -7 -7 -7 -6 -6 -5 -4 -3 -3 -2 -1 -0 1 2 3 4
10 7 8 6 5 5 4 1 2 2 1 2 1 0 -1 -2 -4 -4 -5 -6 -6 -7 -7 -7 -7 -8 -8 -8 -8 -8 -8 -8 -8 -8 -7 -7 -7 -6 -6 -5 -4 -3 -2 -1 -1 0 1 3 3
8 6 5 6 6 6 5 2 1 1 -0 -1 0 -0 -1 -3 -4 -5 -6 -6 -7 -8 -8 -8 -8 -9 -9 -9 -9 -9 -9 -8 -8 -8 -8 -7 -7 -7 -6 -5 -4 -3 -2 -1 -1 -0 1 2 3
8 6 4 3 4 4 3 3 1 1 0 -1 -0 -1 -2 -3 -5 -6 -6 -7 -7 -8 -8 -9 -9 -9 -9 -9 -10 -9 -9 -9 -9 -8 -8 -8 -8 -7 -7 -6 -5 -4 -3 -2 -1 -0 0 1 2
6 6 5 5 4 2 1 2 2 1 1 0 -0 -1 -3 -4 -5 -6 -7 -7 -8 -8 -9 -9 -10 -10 -10 -10 -10 -10 -10 -10 -9 -9 -9 -8 -8 -8 -7 -6 -5 -5 -4 -3 -2 -1 -0 0 1
Wind_Speed
12 7 2 4 6 7 6 6 3 7 6 4 3 8 9 7 7 5 5 4 3 4 8 7 8 7 6 5 4 4 3 1 0 1 2 2 3 4 5 6 7 8 8 7 7 6 5 4 4
6 3 5 5 6 7 6 9 9 7 6 2 5 7 10 9 6 6 9 7 6 5 4 1 4 5 5 5 5 5 5 4 3 4 4 4 5 6 6 8 9 9 10 10 9 8 7 5 5
4 5 5 6 6 5 6 9 7 8 6 6 6 8 7 8 12 12 12 6 8 7 4 2 3 4 5 6 6 6 6 6 6 6 6 6 7 7 7 9 11 11 10 11 10 9 8 6 5
4 5 6 9 10 5 4 7 8 6 9 11 6 8 7 9 14 12 14 9 11 10 10 8 5 5 6 6 7 7 7 7 7 8 7 8 9 9 8 9 11 11 8 8 8 8 7 6 5
5 6 8 8 8 7 6 8 8 9 8 11 8 7 6 13 19 18 19 18 16 13 17 16 13 9 7 7 7 7 7 8 9 9 9 9 10 11 10 9 10 9 8 6 6 6 6 6 5
5 6 7 6 5 7 6 8 7 9 9 11 12 5 7 14 25 21 20 21 20 19 23 24 24 20 15 10 8 8 8 8 10 10 10 11 11 11 11 11 11 9 8 7 6 6 6 5 5
5 6 6 5 4 7 9 7 9 8 12 13 12 7 7 20 23 16 17 21 23 27 27 27 28 26 23 19 14 11 10 10 11 11 11 12 12 12 12 12 11 10 10 9 7 7 6 5 5
5 6 6 4 5 6 8 6 9 15 10 9 9 10 8 16 17 12 19 24 24 24 26 28 29 29 26 23 24 22 18 16 14 14 14 14 13 13 12 12 11 11 11 10 10 9 8 7 6
5 7 5 3 3 5 9 8 7 8 10 12 11 9 8 12 12 22 27 27 26 25 22 26 28 29 28 25 27 27 25 25 23 18 17 14 12 11 11 11 12 13 13 12 12 12 11 9 7
6 5 3 2 3 8 10 10 7 9 14 11 12 14 11 12 22 28 26 25 24 23 21 21 25 27 27 24 24 23 22 24 23 22 21 16 13 11 10 10 12 13 14 15 15 14 12 10 7
6 5 2 6 7 8 8 11 12 8 14 10 10 12 13 21 25 24 21 15 15 13 18 19 23 26 26 22 21 21 20 21 22 25 25 20 15 13 11 8 9 10 12 11 12 12 10 7 6
6 7 6 6 7 8 7 6 12 18 9 6 7 9 14 22 21 19 18 16 15 17 21 19 23 24 24 22 20 20 19 18 19 21 24 20 12 10 10 7 8 7 7 7 7 5 7 7 7
7 6 10 19 26 20 22 16 14 12 8 7 10 16 19 19 15 14 14 16 19 20 21 20 21 23 23 20 18 18 18 18 19 20 22 22 13 9 10 8 8 8 7 5 4 4 5 5 5
5 9 10 9 12 9 19 13 9 9 8 11 16 18 17 17 17 18 20 21 21 20 19 19 16 23 23 18 16 14 16 17 18 18 21 22 18 14 10 9 7 8 9 7 5 5 5 5 4
6 10 8 6 7 7 13 14 9 7 8 14 15 14 16 16 17 17 15 15 14 15 16 18 16 23 21 18 18 17 17 17 15 16 19 21 20 18 14 9 10 10 13 10 6 5 4 4 5
6 6 6 4 5 5 11 9 7 8 11 15 13 12 14 14 14 12 13 13 13 14 16 17 19 19 18 18 17 17 17 16 15 17 17 19 21 20 15 9 10 14 14 8 7 6 5 5 5
8 5 4 4 8 6 9 9 8 9 12 14 12 12 13 14 15 12 13 13 13 13 15 17 16 16 17 18 18 17 16 15 16 17 17 20 20 20 16 9 9 15 10 9 8 7 5 6 7
2 3 3 5 7 10 13 13 10 8 13 12 11 12 14 16 13 11 12 13 13 14 15 15 17 16 16 15 12 10 10 12 15 15 17 21 20 20 17 10 11 13 10 9 9 10 8 6 7
2 3 4 6 6 9 15 14 9 7 9 11 12 13 14 13 11 11 13 15 16 18 19 18 19 18 15 14 14 14 14 12 10 13 19 21 21 21 17 10 9 10 10 11 12 10 10 7 5
5 6 5 6 7 8 13 11 7 7 7 7 8 10 12 13 15 14 15 16 17 17 17 17 17 16 15 15 13 13 13 12 11 14 18 20 22 21 17 12 12 11 11 13 12 10 8 6 5
5 4 3 5 6 7 9 6 4 3 4 6 7 7 10 13 13 12 14 15 16 17 19 19 18 17 16 16 13 15 13 13 13 15 14 18 23 22 19 15 11 12 11 11 13 12 11 10 7
2 2 1 5 7 6 7 5 5 2 5 7 9 9 11 12 11 11 13 16 18 17 17 18 18 18 17 17 17 18 15 15 16 14 14 18 21 21 20 17 13 11 11 12 13 12 11 11 11
5 3 2 3 6 5 3 4 3 0 5 7 8 9 10 10 11 10 12 14 16 17 16 16 18 18 18 17 17 17 16 15 15 15 16 16 14 16 18 17 12 12 12 13 14 14 13 11 11
4 3 3 5 4 2 0 5 2 1 2 5 7 10 11 10 10 9 10 11 12 13 15 17 18 17 18 18 17 18 19 19 20 19 18 17 15 13 15 17 12 12 12 13 14 14 15 13 12
10 7 7 7 4 1 3 4 3 4 2 2 7 11 11 10 9 10 12 12 14 15 16 17 18 18 19 19 19 19 19 19 19 19 18 18 16 17 19 20 17 15 14 14 14 14 14 13 13
5 5 4 3 5 5 3 3 5 4 2 3 6 9 10 9 8 9 10 11 12 15 16 18 19 19 19 18 18 17 18 15 15 18 17 17 16 17 21 22 21 20 18 17 14 13 14 12 12
4 4 2 4 3 5 2 2 4 1 5 7 9 9 9 8 8 9 10 11 12 13 16 18 19 19 19 18 18 16 17 17 18 19 17 15 17 18 22 22 22 21 19 17 15 12 13 11 10
6 6 4 3 4 7 5 4 3 3 8 9 10 11 10 8 8 9 9 12 12 13 15 15 17 17 17 17 16 16 16 17 17 17 18 19 20 20 21 22 22 21 19 17 14 11 10 10 7
4 5 5 4 3 3 6 4 6 3 6 9 10 10 9 9 10 9 9 11 12 12 13 15 16 18 18 17 16 16 16 16 17 16 18 18 19 20 21 21 22 21 20 18 14 11 9 8 6
5 4 4 1 3 3 3 5 4 4 5 7 10 9 7 8 8 8 9 11 12 13 14 15 16 17 17 17 17 16 16 17 17 17 18 18 19 19 19 20 21 21 20 19 17 15 11 7 5
Wind_Direction
337 348 50 52 53 53 42 354 324 337 353 9 69 102 92 72 75 83 320 26 76 111 168 195 187 193 200 206 215 224 233 261 360 330 298 289 287 286 288 287 281 272 266 258 248 239 231 222 199
337 355 47 56 73 62 7 342 354 350 328 326 68 66 56 34 20 3 348 358 51 82 130 124 202 208 219 222 228 232 238 247 260 269 275 279 282 280 281 286 292 286 270 261 253 247 238 228 213
10 45 71 65 66 74 5 338 327 316 359 33 63 53 54 15 350 343 326 7 57 64 69 22 235 232 237 239 238 238 240 241 248 254 258 265 272 277 283 290 296 298 279 259 253 249 244 235 223
52 42 53 67 66 37 357 320 324 348 20 19 52 57 68 39 345 328 338 29 43 33 22 2 310 282 271 264 258 253 252 251 253 255 256 265 270 270 271 284 294 298 287 262 253 251 253 249 234
56 71 60 56 48 2 351 340 345 35 31 6 29 76 52 3 355 5 20 33 34 25 19 9 353 333 310 290 278 269 264 262 263 263 264 268 274 278 270 268 281 287 287 276 261 258 260 261 252
50 63 72 66 36 349 356 348 13 36 22 14 9 59 70 356 6 7 23 36 34 29 23 18 10 2 349 326 303 287 278 272 272 273 272 272 268 275 278 267 268 276 281 277 265 258 261 269 274
80 73 78 84 43 20 359 16 31 28 36 10 349 35 9 358 358 357 24 35 33 29 25 19 14 9 3 355 342 324 308 294 287 284 279 282 279 274 281 280 272 273 275 274 267 255 253 260 274
101 88 63 52 58 27 1 48 50 37 40 6 22 36 5 338 340 3 34 35 32 28 24 18 15 13 9 8 7 2 353 340 326 309 294 285 286 280 282 288 285 280 275 271 265 258 250 247 252
77 71 67 57 84 44 21 53 53 45 55 48 48 41 355 331 3 34 34 30 28 26 24 19 17 14 12 14 14 13 11 5 359 347 333 313 293 283 277 277 280 280 276 269 264 260 253 247 247
65 88 73 38 83 88 56 48 48 60 46 36 32 26 16 25 38 40 36 29 24 20 20 21 19 16 15 14 11 10 9 7 6 4 357 346 330 310 289 273 271 274 278 276 268 262 256 251 250
69 104 65 51 70 90 88 59 35 82 48 23 20 16 24 40 41 40 36 29 22 14 19 18 19 17 18 14 12 11 6 5 4 5 3 357 351 341 329 310 291 284 283 277 268 262 253 244 239
73 49 45 29 63 71 69 81 62 59 71 34 33 33 37 41 37 32 28 23 17 19 16 11 14 14 14 13 12 13 9 6 4 1 3 3 357 351 342 327 310 296 285 279 270 254 247 246 244
61 72 68 84 83 88 87 82 84 61 54 46 49 45 39 37 29 24 25 24 20 18 12 7 8 9 5 6 6 9 7 6 3 3 4 4 359 351 343 335 326 311 294 274 264 253 247 244 244
67 88 114 91 90 79 82 74 76 52 33 45 46 43 37 33 26 26 25 23 20 16 10 4 5 5 0 359 356 356 358 360 2 4 3 4 1 355 346 339 333 325 313 291 267 255 252 250 243
101 97 89 82 96 136 93 60 62 62 50 51 41 36 36 32 30 28 23 21 15 11 7 4 2 1 357 353 350 348 347 351 355 358 360 2 0 356 350 341 339 336 326 308 287 266 247 249 244
66 74 77 48 71 93 88 89 58 51 59 52 37 30 30 27 26 23 21 17 12 7 3 1 0 357 353 349 344 343 341 345 347 349 354 357 356 354 349 339 334 333 329 315 294 272 256 246 241
36 64 76 52 31 59 84 101 56 40 58 51 33 25 24 21 19 15 14 10 5 2 359 357 356 355 351 348 345 342 340 342 342 344 349 349 349 349 344 331 329 330 326 319 307 287 255 249 245
6 54 59 55 37 62 89 94 69 45 60 50 32 23 20 17 5 359 5 4 0 0 358 357 356 355 352 350 346 342 340 341 339 339 344 342 341 341 338 328 329 329 323 321 317 302 278 251 243
164 107 80 59 68 78 94 94 75 51 54 45 32 22 14 4 350 358 6 3 1 1 359 357 355 355 356 355 352 346 342 339 336 337 339 335 335 334 330 328 325 324 319 312 308 303 290 267 238
97 99 91 92 79 96 100 90 74 49 54 45 31 18 3 356 356 358 3 1 357 355 353 353 352 352 356 354 348 342 334 333 332 335 333 334 333 330 329 327 324 319 316 312 308 307 293 276 228
52 107 135 135 78 96 117 99 98 57 57 43 26 11 4 1 351 353 360 358 354 354 353 350 349 350 354 354 350 345 340 339 341 338 335 334 331 327 324 321 318 315 312 308 306 302 290 281 260
337 351 259 173 149 177 158 166 190 155 41 20 5 0 356 352 349 354 359 357 354 350 348 348 349 350 354 355 351 348 345 340 335 331 326 325 324 320 319 318 314 311 309 304 303 301 293 280 267
274 314 248 175 154 122 148 137 208 53 22 359 344 340 339 343 346 352 356 355 350 347 348 350 349 350 352 351 348 345 341 337 331 329 324 324 318 313 311 310 307 306 304 299 298 298 292 280 265
315 28 93 66 94 132 320 170 226 2 28 332 331 329 329 336 344 348 350 352 347 347 353 352 348 348 348 347 346 343 340 337 333 333 331 330 326 321 316 315 307 302 299 297 296 292 288 280 268
26 46 18 3 1 303 76 103 187 181 167 338 333 326 324 333 343 345 347 351 352 351 355 350 347 347 349 347 346 343 341 336 333 332 329 329 329 329 328 326 318 311 302 296 291 288 284 277 267
28 72 95 292 283 298 40 158 211 186 202 309 321 314 318 330 339 342 346 349 350 352 355 351 348 347 348 346 344 341 342 338 334 329 327 327 328 328 327 326 320 315 308 301 292 288 282 275 263
71 72 119 155 295 284 257 199 240 233 326 314 311 315 324 333 339 342 348 353 351 355 357 350 347 346 345 344 341 340 341 339 335 330 329 329 329 329 330 327 324 320 314 305 294 284 282 275 262
86 124 77 68 336 305 292 223 216 290 309 310 317 323 330 343 344 349 356 357 354 357 353 345 345 344 341 341 340 340 337 336 335 333 332 332 330 332 333 333 330 329 326 319 305 288 282 275 263
38 59 85 96 156 240 297 278 170 215 292 307 309 315 331 343 345 352 358 358 352 353 351 345 345 344 342 340 338 336 336 337 337 336 333 333 332 334 338 339 338 339 341 338 330 315 298 284 270
95 98 113 117 264 206 235 266 165 188 288 299 306 317 336 338 340 350 356 354 349 349 348 345 345 344 341 339 337 336 336 338 339 337 335 335 335 337 340 343 344 346 349 352 350 346 341 327 304
Height
1516 1514 1514 1515 1518 1530 1533 1530 1526 1523 1520 1520 1519 1520 1523 1528 1532 1539 1536 1533 1533 1532 1531 1530 1530 1530 1529 1529 1529 1529 1529 1529 1529 1529 1529 1529 1529 1529 1529 1530 1530 1531 1531 1531 1532 1532 1533 1533 1533
1516 1515 1516 1516 1528 1543 1540 1532 1528 1525 1523 1522 1522 1524 1526 1531 1535 1537 1537 1536 1536 1535 1534 1533 1532 1532 1531 1530 1530 1530 1529 1529 1529 1528 1528 1528 1528 1528 1528 1528 1529 1529 1530 1530 1530 1531 1531 1532 1532
1516 1516 1518 1522 1537 1546 1541 1534 1531 1526 1524 1523 1525 1529 1534 1541 1541 1541 1540 1540 1539 1538 1537 1536 1535 1534 1533 1532 1531 1530 1529 1529 1528 1527 1527 1527 1526 1526 1526 1526 1527 1527 1528 1528 1529 1529 1530 1531 1531
1518 1519 1521 1530 1542 1541 1539 1535 1530 1526 1525 1525 1527 1534 1542 1549 1547 1544 1542 1541 1540 1539 1539 1538 1536 1535 1534 1533 1532 1531 1530 1528 1528 1527 1527 1526 1525 1525 1525 1525 1525 1526 1526 1527 1527 1527 1528 1529 1529
1519 1520 1531 1542 1543 1541 1538 1535 1533 1530 1532 1533 1532 1540 1546 1548 1547 1544 1542 1540 1539 1539 1539 1538 1537 1536 1534 1533 1532 1530 1529 1528 1527 1527 1526 1525 1524 1524 1524 1523 1523 1524 1524 1525 1525 1526 1526 1527 1528
1521 1523 1544 1551 1547 1543 1540 1539 1537 1537 1539 1538 1540 1543 1552 1554 1547 1544 1543 1540 1539 1538 1538 1537 1535 1534 1534 1533 1532 1531 1529 1528 1527 1526 1525 1524 1523 1522 1522 1522 1522 1522 1522 1523 1523 1523 1524 1525 1525
1524 1533 1547 1549 1549 1546 1544 1542 1545 1545 1546 1550 1549 1549 1554 1553 1550 1548 1545 1542 1540 1539 1538 1537 1535 1534 1533 1532 1531 1530 1529 1528 1526 1525 1524 1522 1521 1521 1520 1520 1520 1520 1520 1520 1521 1521 1521 1522 1522
1527 1535 1548 1550 1550 1549 1548 1548 1553 1554 1558 1559 1556 1560 1564 1561 1556 1552 1547 1543 1542 1541 1539 1538 1536 1534 1533 1531 1530 1529 1527 1526 1525 1523 1522 1520 1519 1519 1518 1517 1517 1517 1517 1517 1518 1518 1519 1519 1519
1530 1543 1552 1549 1548 1551 1551 1553 1560 1567 1567 1567 1569 1571 1572 1566 1559 1551 1546 1545 1544 1543 1541 1540 1538 1536 1534 1531 1530 1528 1526 1524 1523 1521 1520 1518 1517 1516 1516 1515 1514 1514 1514 1514 1515 1515 1516 1516 1516
1533 1549 1547 1546 1547 1553 1557 1559 1565 1571 1569 1572 1573 1574 1571 1565 1557 1552 1550 1549 1547 1546 1544 1542 1539 1537 1535 1532 1530 1528 1526 1524 1522 1519 1517 1516 1514 1514 1513 1513 1512 1512 1512 1512 1512 1512 1513 1513 1513
1538 1546 1545 1547 1549 1553 1558 1565 1569 1570 1579 1582 1581 1577 1572 1565 1560 1558 1558 1556 1554 1551 1547 1544 1541 1538 1535 1532 1530 1528 1525 1523 1521 1518 1516 1514 1512 1511 1510 1510 1510 1510 1509 1509 1509 1509 1509 1509 1510
1542 1547 1547 1550 1550 1554 1560 1568 1576 1577 1587 1588 1584 1580 1574 1568 1566 1565 1563 1561 1558 1554 1550 1547 1543 1540 1536 1533 1530 1527 1524 1522 1519 1517 1515 1513 1511 1509 1507 1506 1506 1506 1506 1506 1505 1505 1505 1505 1506
1545 1551 1554 1555 1555 1561 1566 1573 1579 1588 1590 1589 1585 1580 1576 1574 1572 1571 1568 1565 1560 1556 1553 1549 1546 1542 1538 1535 1531 1528 1524 1521 1518 1516 1513 1510 1508 1507 1505 1504 1503 1502 1501 1501 1501 1501 1501 1501 1501
1548 1551 1557 1559 1558 1565 1569 1578 1583 1593 1592 1589 1585 1582 1580 1578 1576 1573 1569 1566 1563 1559 1556 1552 1548 1544 1540 1536 1532 1528 1524 1521 1518 1514 1511 1508 1506 1503 1502 1501 1500 1498 1497 1496 1496 1496 1496 1496 1496
1549 1554 1559 1562 1563 1569 1569 1587 1593 1596 1593 1589 1588 1587 1585 1583 1580 1576 1574 1570 1567 1563 1558 1553 1548 1544 1540 1535 1531 1527 1524 1520 1516 1512 1509 1506 1503 1500 1498 1496 1494 1493 1492 1491 1490 1490 1490 1490 1490
1550 1557 1564 1565 1565 1569 1574 1598 1599 1599 1595 1593 1592 1591 1588 1586 1583 1580 1577 1573 1568 1563 1558 1553 1548 1543 1538 1533 1529 1525 1521 1517 1513 1510 1506 1502 1499 1496 1493 1491 1489 1487 1486 1485 1484 1484 1484 1484 1484
1561 1564 1566 1568 1569 1571 1579 1599 1604 1603 1599 1597 1596 1594 1591 1588 1584 1581 1578 1573 1568 1563 1557 1552 1546 1540 1535 1531 1526 1521 1517 1513 1509 1505 1502 1498 1494 1491 1488 1485 1483 1481 1479 1478 1478 1477 1477 1477 1478
1565 1565 1567 1572 1577 1580 1588 1602 1607 1606 1602 1600 1599 1596 1593 1589 1587 1583 1578 1573 1568 1562 1556 1550 1544 1538 1532 1527 1521 1517 1512 1508 1504 1500 1497 1493 1489 1486 1482 1479 1476 1474 1472 1470 1470 1469 1469 1469 1471
1562 1565 1571 1578 1582 1589 1597 1605 1608 1606 1602 1601 1599 1597 1594 1592 1588 1583 1578 1573 1567 1561 1555 1548 1542 1536 1529 1523 1517 1511 1506 1502 1498 1494 1491 1488 1484 1480 1476 1472 1469 1467 1465 1463 1462 1461 1461 1461 1464
1563 1569 1575 1583 1586 1593 1603 1608 1608 1607 1605 1604 1602 1599 1596 1591 1586 1582 1577 1572 1566 1560 1553 1547 1540 1534 1528 1522 1517 1511 1505 1500 1495 1490 1486 1482 1478 1474 1470 1466 1462 1460 1457 1455 1455 1454 1453 1453 1456
1567 1569 1571 1578 1589 1593 1599 1609 1609 1608 1606 1604 1602 1600 1596 1592 1587 1582 1577 1572 1566 1559 1553 1546 1540 1534 1527 1521 1514 1507 1501 1495 1489 1484 1479 1476 1472 1468 1464 1460 1456 1453 1450 1447 1446 1446 1445 1445 1447
1571 1568 1570 1573 1584 1594 1595 1610 1611 1608 1606 1604 1601 1599 1595 1592 1587 1582 1577 1571 1565 1558 1552 1546 1539 1533 1526 1519 1512 1505 1498 1491 1486 1481 1476 1471 1467 1462 1458 1453 1449 1445 1442 1440 1438 1437 1437 1436 1437
1571 1569 1570 1571 1578 1587 1591 1601 1609 1607 1607 1606 1602 1599 1595 1591 1587 1582 1576 1570 1564 1557 1550 1544 1537 1531 1524 1517 1510 1503 1497 1491 1484 1479 1472 1467 1461 1457 1452 1446 1441 1437 1434 1431 1429 1428 1428 1428 1428
1570 1570 1571 1576 1580 1582 1589 1595 1610 1609 1607 1606 1602 1599 1594 1590 1585 1580 1575 1568 1561 1555 1548 1541 1534 1527 1521 1514 1508 1501 1495 1488 1481 1475 1469 1463 1457 1452 1446 1440 1434 1429 1425 1422 1420 1419 1418 1418 1419
1573 1577 1581 1579 1580 1584 1598 1603 1611 1606 1605 1604 1602 1598 1593 1589 1583 1577 1571 1564 1558 1552 1545 1539 1532 1525 1518 1512 1505 1499 1493 1487 1480 1474 1467 1461 1454 1447 1440 1434 1428 1423 1418 1415 1412 1410 1409 1410 1410
1580 1582 1592 1594 1592 1594 1598 1606 1610 1605 1604 1602 1600 1597 1592 1586 1581 1576 1570 1564 1557 1551 1544 1537 1530 1523 1516 1510 1503 1498 1492 1485 1479 1473 1467 1461 1454 1445 1437 1430 1423 1418 1413 1408 1405 1402 1401 1401 1402
1580 1589 1589 1598 1598 1601 1599 1608 1606 1604 1603 1600 1597 1593 1589 1584 1579 1575 1569 1563 1556 1550 1543 1536 1529 1522 1515 1508 1502 1496 1490 1483 1477 1471 1465 1459 1452 1444 1435 1427 1420 1414 1408 1403 1399 1396 1394 1394 1394
1584 1589 1596 1596 1597 1595 1592 1605 1606 1605 1603 1598 1594 1590 1586 1582 1578 1573 1567 1561 1555 1549 1543 1536 1528 1521 1514 1508 1501 1495 1489 1482 1475 1468 1462 1455 1448 1441 1433 1425 1418 1412 1405 1399 1394 1391 1389 1388 1388
1588 1592 1599 1607 1604 1606 1606 1599 1602 1602 1600 1597 1593 1588 1584 1580 1576 1571 1566 1560 1554 1547 1541 1534 1527 1520 1513 1506 1500 1493 1487 1480 1473 1466 1459 1452 1445 1438 1431 1424 1417 1410 1403 1396 1391 1387 1385 1384 1383
1591 1594 1598 1603 1606 1612 1616 1606 1599 1599 1598 1595 1591 1587 1583 1579 1575 1570 1565 1559 1552 1545 1538 1532 1526 1519 1512 1505 1498 1492 1485 1478 1471 1464 1457 1450 1443 1437 1430 1423 1417 1410 1403 1396 1390 1386 1383 1381 1380